Regional Weather Roundup
Issued by NWS

Home | Current Version | Previous Version | Text Only | Print | Product List | Glossary On
Versions: 1 2 3 4 5 6 7 8 9 10 11 12 13 14 15 16 17 18 19 20 21 22 23 24 25 26 27 28 29 30 31 32 33 34 35 36 37 38 39 40 41 42 43 44 45 46 47 48 49 50
000
ASUS43 KDTX 261710
RWRMI
MICHIGAN HOURLY REGIONAL WEATHER ROUNDUP
NATIONAL WEATHER SERVICE DETROIT/PONTIAC MI
ISSUED BY NATIONAL WEATHER SERVICE GRAND RAPIDS MI
100 PM EDT FRI MAY 26 2017

NOTE: "FAIR" INDICATES FEW OR NO CLOUDS BELOW 12,000 FEET WITH NO
SIGNIFICANT WEATHER AND/OR OBSTRUCTION TO VISIBILITY.

MIZ047>049-052>055-059>063-066>070-074>076-081>083-261800-
SOUTHEAST LOWER MICHIGAN

CITY           SKY/WX    TMP DP  RH WIND       PRES   REMARKS
ADRIAN         PTSUNNY   66  54  65 NW8       29.88R
ALMA           CLOUDY    64  53  67 W7        29.87R
ANN ARBOR      CLOUDY    64  54  69 W9G20     29.86S
BAD AXE        CLOUDY    59  55  85 N8        29.84R
DETROIT CITY   CLOUDY    63  52  67 NW7       29.86R
DETROIT        CLOUDY    65  53  65 W10       29.86S
FLINT          CLOUDY    63  52  67 W8        29.85S
GROSSE ILE     CLOUDY    63  53  68 W8        29.85S
HILLSDALE      PTSUNNY   64  54  68 W7        29.88R
HOWELL         CLOUDY    64  51  62 NW7       29.86S

CITY           SKY/WX    TMP DP  RH WIND       PRES   REMARKS
JACKSON        PTSUNNY   65  53  65 NW7       29.87S
LANSING        CLOUDY    65  51  60 NW7       29.88R
MASON          CLOUDY    64  53  68 W8G16     29.88R
MONROE         CLOUDY    65  54  65 W7        29.86S
MT. CLEMENS    CLOUDY    62  55  78 W8        29.84S
PONTIAC        CLOUDY    62  52  69 W6        29.84S
PORT HOPE        N/A     57  55  93 NW10      29.82R
PORT HURON     CLOUDY    61  52  72 NW8       29.84S
TRI CITIES     CLOUDY    64  54  69 N8        29.85S
YPSILANTI      CLOUDY    65  53  65 W8        29.87S
$$
MIZ043>046-050>051-056>058-064>065-071>073-077>080-261800-
SOUTHWEST LOWER MICHIGAN

CITY           SKY/WX    TMP DP  RH WIND       PRES   REMARKS
BATTLE CREEK   MOSUNNY   66  54  65 VRB5      29.88F
BENTON HARBOR  MOSUNNY   65  53  65 CALM      29.86F
BIG RAPIDS     MOSUNNY   67  49  52 CALM      29.85R
COLDWATER      PTSUNNY   65  57  74 W3        29.89S
HOLLAND        SUNNY     66  53  63 S3        29.88F
GRAND RAPIDS   PTSUNNY   65  53  65 CALM      29.86S
KALAMAZOO      SUNNY     67  52  58 CALM      29.88F
MARSHALL       PTSUNNY   64  55  73 SW3       29.88S
MOUNT PLEASANT CLOUDY    64  52  64 NE3       29.85R
MUSKEGON       PTSUNNY   65  53  65 SW8       29.87S
STURGIS        MOSUNNY   67  55  66 W5        29.87F
$$
MIZ016>042-261800-
NORTHERN LOWER MICHIGAN

CITY           SKY/WX    TMP DP  RH WIND       PRES   REMARKS
ALPENA         CLOUDY    64  55  72 N10       29.83S
BEAVER ISLAND  MOSUNNY   65  53  66 NW8       29.84F
BELLAIRE       PTSUNNY   65  52  61 N7        29.83F
CADILLAC       PTSUNNY   64  51  64 NE5       29.85S
CHARLEVOIX     SUNNY     62  55  77 W7        29.87F
GAYLORD        CLOUDY    64  49  57 VRB3      29.84S
HOUGHTON LAKE  CLOUDY    65  50  58 N8        29.85S
MANISTEE       CLOUDY    62  52  69 NW12      29.86R
OSCODA         CLOUDY    62  55  77 N10G16    29.83R
PELLSTON       PTSUNNY   68  52  56 N8        29.84R
TRAVERSE CITY  MOSUNNY   66  52  60 NE8       29.84S
LUDINGTON      CLOUDY    60  53  78 W7        29.86S
$$
MIZ007>008-015-261800-
EASTERN UPPER MICHIGAN

CITY           SKY/WX    TMP DP  RH WIND       PRES   REMARKS
KINROSS        PTSUNNY   66  51  58 VRB5      29.83R
MACKINAC ISLAN PTSUNNY   63  52  69 SW7       29.84R
NEWBERRY       PTSUNNY   67  51  56 NE6       29.82F
S. S. MARIE    CLOUDY    65  54  67 W7        29.81S
$$
MIZ004>006-011>014-085-261800-
CENTRAL UPPER MICHIGAN

CITY           SKY/WX    TMP DP  RH WIND       PRES   REMARKS
MANISTIQUE     SUNNY     65  51  60 S9        29.83S
ESCANABA       PTSUNNY   62  52  69 S9        29.85S
MENOMINEE      MOSUNNY   64  53  67 SE8       29.85S
SAWYER-GWINN   PTSUNNY   66  48  52 SW5       29.83F
$$
MIZ001>003-009>011-084-261800-
WESTERN UPPER MICHIGAN

CITY           SKY/WX    TMP DP  RH WIND       PRES   REMARKS
IRON MOUNTAIN  PTSUNNY   67  51  56 SE6       29.82S
HOUGHTON       CLOUDY    63  50  62 SE8       29.80S
COPPER HARBOR    N/A     66  49  54 VRB7      29.80S
IRONWOOD       CLOUDY    65  53  65 S7        29.79R
$$

ABBREVIATIONS USED IN REMARKS
   TC - TEMPERATURE IN CELSIUS
  WCI - WIND CHILL INDEX
   HX - HEAT INDEX
  VSB - VISIBILITY





USA.gov is the U.S. government's official web portal to all federal, state and local government web resources and services.